Regional Weather Roundup
Issued by NWS Little Rock, AR

Home | Current Version | Previous Version | Text Only | Print | Product List | Glossary Off
Versions: 1 2 3 4 5 6 7 8 9 10 11 12 13 14 15 16 17 18 19 20 21 22 23 24 25 26 27

000
ASUS44 KLZK 281905
RWRLZK

WEATHER ROUNDUP FOR ARKANSAS
NATIONAL WEATHER SERVICE LITTLE ROCK AR
200 PM CDT SAT MAY 28 2016

NOTE: "FAIR" INDICATES FEW OR NO CLOUDS BELOW 12,000 FEET WITH NO
SIGNIFICANT WEATHER AND/OR OBSTRUCTIONS TO VISIBILITY.

ARZ001-003-010-029-282000-
NORTHWEST ARKANSAS

CITY           SKY/WX    TMP DP  RH WIND       PRES   REMARKS
FAYETTEVILLE   SUNNY     78  66  66 S13       29.97F
FORT SMITH     SUNNY     81  65  58 E5        29.96F
HARRISON       SUNNY     82  66  58 SE7       29.98S
BENTONVILLE    PTSUNNY   75  63  64 SW8       29.98F
ROGERS         MOSUNNY   78  65  63 SW9       29.98F
SILOAM SPGS    CLOUDY    75  61  60 SW7       29.99S
HIGHFILL       CLOUDY    74  67  78 W7        29.98S
SPRINGDALE     MOSUNNY   79  64  61 S9G15     29.99F
$$

ARZ004-005-016-282000-
NORTH CENTRAL ARKANSAS

CITY           SKY/WX    TMP DP  RH WIND       PRES   REMARKS
BATESVILLE     CLOUDY    81  66  61 S9        30.00S
FLIPPIN        MOSUNNY  N/A N/A N/A S3        29.93S
MTN HOME       SUNNY     82  66  58 VRB6      29.96S
$$

ARZ040-041-282000-
WEST CENTRAL ARKANSAS

CITY           SKY/WX    TMP DP  RH WIND       PRES   REMARKS
MENA           PTSUNNY   77  68  73 CALM      30.02F
MOUNT IDA      PTSUNNY   75  64  68 VRB5      29.99F
$$

ARZ009-017-025-026-028-282000-
NORTHEAST ARKANSAS

CITY           SKY/WX    TMP DP  RH WIND       PRES   REMARKS
CORNING        LGT RAIN  82  70  65 SW15      30.00S HX  86
JONESBORO      CLOUDY    82  69  64 S13       29.99S HX  85
NEWPORT        CLOUDY    82  68  62 S16       30.01R HX  85
WALNUT RIDGE   PTSUNNY   81  66  61 S15       29.99S
BLYTHEVILLE    PTSUNNY   83  69  62 SW13      30.01S HX  86
$$

ARZ022-023-033-042-044-282000-
CENTRAL ARKANSAS

CITY           SKY/WX    TMP DP  RH WIND       PRES   REMARKS
LITTLE ROCK    PTSUNNY   82  66  58 SW8       30.00S
N LITTLE ROCK    N/A     81  66  59 SW6       29.98S
JACKSONVILLE   PTSUNNY   82  67  61 SE8       29.99S
SEARCY         CLOUDY    80  69  69 SW7       30.02R
HOT SPRINGS    CLOUDY    76  63  64 S7        30.02S
RUSSELLVILLE   MOSUNNY   79  65  62 SW8       29.99S
CLINTON        FAIR      81  68  65 S7        29.99F
$$

ARZ036-282000-
EAST ARKANSAS

CITY           SKY/WX    TMP DP  RH WIND       PRES   REMARKS
WEST MEMPHIS   CLOUDY    81  69  67 S14       29.99F
$$

ARZ050-053-066-070-073-282000-
SOUTHWEST ARKANSAS

CITY           SKY/WX    TMP DP  RH WIND       PRES   REMARKS
ARKADELPHIA    FAIR      80  67  64 SW7       30.01S
CAMDEN         PTSUNNY   84  64  51 W5        30.00F HX  86
TEXARKANA      CLOUDY    75  66  73 NW6       30.01S
EL DORADO      CLOUDY    81  67  62 S5        30.00F
DE QUEEN       PTSUNNY   74  66  76 CALM      29.99F
$$

ARZ056-057-069-282000-
SOUTHEAST ARKANSAS

CITY           SKY/WX    TMP DP  RH WIND       PRES   REMARKS
PINE BLUFF     MOSUNNY   80  66  62 S7        30.00F
STUTTGART      PTSUNNY   82  66  57 S12       30.01S HX  85
MONTICELLO     CLOUDY    83  67  58 VRB3      30.00F HX  85

$$






USA.gov is the U.S. government's official web portal to all federal, state and local government web resources and services.